(239015) = 2002 GR121 = 2006 DE70

Discovered at Mount Lemmon on 2006-02-20 by Mt. Lemmon Survey.

Orbit

Orbit type: Main Belt

Note: WebGL enabled browser required.

epoch2023-09-13.0
epoch JD2460200.5
perihelion date2022-12-10.27644
perihelion JD2459923.77644
argument of perihelion (°)239.61995
ascending node (°)13.97011
inclination (°)3.56392
eccentricity0.1768837
perihelion distance (AU)2.0870317
Tisserand w.r.t. Jupiter3.4
ΔV w.r.t. Earth (km/sec)9.1
semimajor axis (AU)2.5355246
mean anomaly (°)67.55356
mean daily motion (°/day)0.24411930
aphelion distance (AU)2.984
period (years)4.04
P-vector [x]-0.28291071
P-vector [y]-0.85729153
P-vector [z]-0.43013109
Q-vector [x]0.95902884
Q-vector [y]-0.24582007
Q-vector [z]-0.14084094
absolute magnitude16.98
phase slope0.15
uncertainty0
referenceMPEC 2023-X152
observations used368
oppositions14
arc length (days)7830
first opposition used2002
last opposition used2023
residual rms (arc-secs)0.76
perturbers coarse indicatorM-v
perturbers precise indicator003Ek
first observation date used2002-04-10.0
last observation date used2023-09-17.0
computer nameMPCLINUX
JD of orbit computation2456847.865790
perihelion JD uncertainty (days)2.1380E-04
argument of perihelion uncertainty (°)9.0183E-05
ascending node uncertainty (°)7.0921E-05
inclination uncertainty (°)1.3246E-05
eccentricity uncertainty 4.8818E-08
perihelion distance uncertainty (AU)1.2492E-07
Minimum Orbit Intersection Distances (in AU)
for orbit epoch: 2460200.5, reference: E2023-XF2
Mercury1.6205
Venus1.36285
Earth1.07459
Mars0.56466
Jupiter2.06591
Saturn6.09196
Uranus15.8414
Neptune26.9338

Observations

385 total observations over interval: 2002 04 10.29746 – 2023 09 17.378010
These data are available for download (format description).

Date (UT) J2000 RA J2000 Dec Magn Location Ref
2002 04 10.29746 12 40 56.24 -04 30 33.9 19.0   704 – Lincoln Laboratory ETS, New Mexico MPS 57524
2002 04 10.30968 12 40 55.49 -04 30 31.4 19.5   704 – Lincoln Laboratory ETS, New Mexico MPS 57524
2002 04 10.33282 12 40 54.02 -04 30 25.4 20.1   704 – Lincoln Laboratory ETS, New Mexico MPS 57524
2002 04 10.34421 12 40 53.54 -04 30 24.7 19.5   704 – Lincoln Laboratory ETS, New Mexico MPS 57524
2002 04 14.20790 12 37 22.77 -04 16 37.7 18.8   704 – Lincoln Laboratory ETS, New Mexico MPS 57524
2002 04 14.22191 12 37 21.99 -04 16 34.7 19.6   704 – Lincoln Laboratory ETS, New Mexico MPS 57524
2002 04 14.23580 12 37 21.16 -04 16 31.8 19.3   704 – Lincoln Laboratory ETS, New Mexico MPS 57524
2002 04 14.24969 12 37 20.43 -04 16 29.0 19.8   704 – Lincoln Laboratory ETS, New Mexico MPS 57524
2002 04 14.26359 12 37 19.65 -04 16 26.0 19.5   704 – Lincoln Laboratory ETS, New Mexico MPS 57524
2003 09 26.283100 00 04 30.817 -00 55 41.86 20.32 V 645 – Apache Point-Sloan Digital Sky Survey MPS 212436
2003 09 26.286572 00 04 30.618 -00 55 42.66 21.24   645 – Apache Point-Sloan Digital Sky Survey MPS 212436
2003 09 28.291240 00 02 39.532 -01 04 37.22 20.45 V 645 – Apache Point-Sloan Digital Sky Survey MPS 212436
2003 09 28.294712 00 02 39.333 -01 04 38.17 21.39   645 – Apache Point-Sloan Digital Sky Survey MPS 212436
2006 01 31.49751 12 49 35.50 -03 15 30.8 21.0 V G96 – Mt. Lemmon Survey MPS 166242
2006 01 31.50279 12 49 35.61 -03 15 31.3 21.0 V G96 – Mt. Lemmon Survey MPS 166242
2006 01 31.50807 12 49 35.72 -03 15 32.4 20.8 V G96 – Mt. Lemmon Survey MPS 166242
2006 01 31.51334 12 49 35.83 -03 15 33.0 20.6 V G96 – Mt. Lemmon Survey MPS 166242
2006 02 20.48724 12 50 58.30 -03 39 45.8 20.4 V G96 – Mt. Lemmon Survey MPS 166242
2006 02 20.49407 12 50 58.23 -03 39 45.2 19.8 V G96 – Mt. Lemmon Survey MPS 166242
2006 02 20.50083 12 50 58.09 -03 39 45.6 20.2 V G96 – Mt. Lemmon Survey MPS 166242
2006 02 20.50767 12 50 58.02 -03 39 44.7 20.1 V G96 – Mt. Lemmon Survey MPS 166242
2006 02 27.44961 12 48 46.39 -03 33 47.2 20.2 V 691 – Steward Observatory, Kitt Peak-Spacewatch MPS 166242
2006 02 27.46687 12 48 45.93 -03 33 45.8 20.4 V 691 – Steward Observatory, Kitt Peak-Spacewatch MPS 166242
2006 02 27.48411 12 48 45.46 -03 33 43.7 20.0 V 691 – Steward Observatory, Kitt Peak-Spacewatch MPS 166242
2006 03 03.45385 12 46 52.81 -03 27 03.0   691 – Steward Observatory, Kitt Peak-Spacewatch MPS 166242
2006 03 03.47109 12 46 52.23 -03 27 00.8   691 – Steward Observatory, Kitt Peak-Spacewatch MPS 166242
2006 03 03.48839 12 46 51.67 -03 26 58.7   691 – Steward Observatory, Kitt Peak-Spacewatch MPS 166242
2006 03 06.40044 12 45 12.74 -03 20 39.0 19.6 V G96 – Mt. Lemmon Survey MPS 166242
2006 03 06.40514 12 45 12.52 -03 20 37.0 20.1 V G96 – Mt. Lemmon Survey MPS 166242
2006 03 06.40993 12 45 12.42 -03 20 37.7 19.6 V G96 – Mt. Lemmon Survey MPS 166242
2006 03 06.41465 12 45 12.31 -03 20 36.8 19.7 V G96 – Mt. Lemmon Survey MPS 166242
2006 03 23.32618 12 31 59.70 -02 25 38.9 19.4 V G96 – Mt. Lemmon Survey MPS 167183
2006 03 23.33307 12 31 59.30 -02 25 37.1 19.7 V G96 – Mt. Lemmon Survey MPS 167183
2006 03 23.33990 12 31 58.90 -02 25 36.4 19.2 V G96 – Mt. Lemmon Survey MPS 167183
2006 03 23.34668 12 31 58.51 -02 25 33.9 19.5 V G96 – Mt. Lemmon Survey MPS 167183
2006 04 02.27541 12 22 38.33 -01 46 01.5 19.5   701 – Junk Bond Observatory, Sierra Vista MPS 168275
2006 04 02.29971 12 22 36.88 -01 45 55.1 19.6   701 – Junk Bond Observatory, Sierra Vista MPS 168275
2006 04 02.37146 12 22 32.64 -01 45 38.7 19.9   701 – Junk Bond Observatory, Sierra Vista MPS 168275
2006 04 07.27362 12 18 00.03 -01 26 55.8 19.8 V G96 – Mt. Lemmon Survey MPS 168275
2006 04 07.28023 12 17 59.67 -01 26 54.5 19.9 V G96 – Mt. Lemmon Survey MPS 168275
2006 04 07.28683 12 17 59.28 -01 26 53.1 19.9 V G96 – Mt. Lemmon Survey MPS 168275
2006 04 07.29343 12 17 58.92 -01 26 51.5 19.6 V G96 – Mt. Lemmon Survey MPS 168275
2006 04 19.22013 12 08 14.56 -00 49 52.9 19.8 V G96 – Mt. Lemmon Survey MPS 169192
2006 04 19.23123 12 08 14.06 -00 49 51.2 20.0 V G96 – Mt. Lemmon Survey MPS 169192
2006 04 19.24255 12 08 13.56 -00 49 50.0 20.0 V G96 – Mt. Lemmon Survey MPS 169192
2006 04 19.25370 12 08 13.05 -00 49 48.1 20.0 V G96 – Mt. Lemmon Survey MPS 169192
2006 05 21.14897 12 00 06.40 -00 56 55.6 19.9 V G96 – Mt. Lemmon Survey MPS 172067
2006 05 21.15677 12 00 06.51 -00 56 56.4 19.9 V G96 – Mt. Lemmon Survey MPS 172067
2006 05 21.16442 12 00 06.58 -00 56 57.8 19.9 V G96 – Mt. Lemmon Survey MPS 172067
2006 05 21.17218 12 00 06.62 -00 57 00.3 20.2 V G96 – Mt. Lemmon Survey MPS 172067
2006 05 26.23980 12 01 35.90 -01 14 10.8 20.6 V G96 – Mt. Lemmon Survey MPS 172886
2006 05 26.24487 12 01 36.01 -01 14 12.0 20.6 V G96 – Mt. Lemmon Survey MPS 172886
2006 05 26.24988 12 01 36.12 -01 14 12.9 20.8 V G96 – Mt. Lemmon Survey MPS 172886
2006 05 26.25490 12 01 36.22 -01 14 14.1 20.5 V G96 – Mt. Lemmon Survey MPS 172886
2007 10 12.29879 23 33 59.72 -04 05 55.0 20.4 V G96 – Mt. Lemmon Survey MPS 220570
2007 10 12.29932 23 33 59.68 -04 05 54.9 20.1 V G96 – Mt. Lemmon Survey MPS 220570
2007 10 12.30488 23 33 59.47 -04 05 55.8 20.4 V G96 – Mt. Lemmon Survey MPS 220570
2007 10 12.30543 23 33 59.43 -04 05 56.3 19.8 V G96 – Mt. Lemmon Survey MPS 220570
2007 10 12.31095 23 33 59.25 -04 05 56.6 20.5 V G96 – Mt. Lemmon Survey MPS 220570
2007 10 12.31148 23 33 59.22 -04 05 56.5 19.9 V G96 – Mt. Lemmon Survey MPS 220570
2007 10 12.31700 23 33 58.96 -04 05 57.7 20.5 V G96 – Mt. Lemmon Survey MPS 220570
2007 10 12.31755 23 33 58.96 -04 05 57.6 19.9 V G96 – Mt. Lemmon Survey MPS 220570
2010 02 13.42729 12 32 09.44 -01 09 51.1 20.6 V 691 – Steward Observatory, Kitt Peak-Spacewatch MPS 313283
2010 02 13.44489 12 32 09.22 -01 09 50.6 20.7 V 691 – Steward Observatory, Kitt Peak-Spacewatch MPS 313283
2010 02 13.46249 12 32 09.01 -01 09 49.9 20.6 V 691 – Steward Observatory, Kitt Peak-Spacewatch MPS 313283
2010 02 17.43230 12 31 12.83 -01 06 50.4 20.5 V 691 – Steward Observatory, Kitt Peak-Spacewatch MPS 313283
2010 02 17.44992 12 31 12.53 -01 06 49.2 20.1 V 691 – Steward Observatory, Kitt Peak-Spacewatch MPS 313283
2010 02 17.46754 12 31 12.17 -01 06 47.8 20.3 V 691 – Steward Observatory, Kitt Peak-Spacewatch MPS 313283
2010 02 20.506230 12 30 10.805 -01 02 49.92 20.55 r F51 – Pan-STARRS 1, Haleakala MPS 319346
2010 02 20.517101 12 30 10.526 -01 02 48.80 20.25 r F51 – Pan-STARRS 1, Haleakala MPS 319346
2010 03 10.98390 12 18 46.03 -00 11 56.2 19.5 V J75 – OAM Observatory, La Sagra MPS 316749
2010 03 10.99819 12 18 45.23 -00 11 51.7 19.1 V J75 – OAM Observatory, La Sagra MPS 316749
2010 03 11.01247 12 18 44.55 -00 11 49.7 19.7 V J75 – OAM Observatory, La Sagra MPS 316749
2010 03 12.37156 12 17 36.34 -00 06 38.7 21.2 V 703 – Catalina Sky Survey MPS 317946
2010 03 12.37912 12 17 35.88 -00 06 36.1 20.1 V 703 – Catalina Sky Survey MPS 317946
2010 03 12.38683 12 17 35.52 -00 06 34.8 20.4 V 703 – Catalina Sky Survey MPS 317946
2010 03 12.39448 12 17 35.08 -00 06 31.1 19.4 V 703 – Catalina Sky Survey MPS 317946
2010 03 18.32101 12 12 19.76 +00 17 27.9 20.1   704 – Lincoln Laboratory ETS, New Mexico MPS 319346
2010 03 18.33203 12 12 19.10 +00 17 29.7 20.4   704 – Lincoln Laboratory ETS, New Mexico MPS 319346
2010 03 18.34304 12 12 18.57 +00 17 33.9 20.5   704 – Lincoln Laboratory ETS, New Mexico MPS 319346
2010 03 18.35407 12 12 17.89 +00 17 36.3 20.2   704 – Lincoln Laboratory ETS, New Mexico MPS 319346
2010 04 17.25545 11 46 29.13 +02 02 52.5 20.0 V G96 – Mt. Lemmon Survey MPS 323461
2010 04 17.26218 11 46 28.84 +02 02 53.1 19.9 V G96 – Mt. Lemmon Survey MPS 323461
2010 04 17.26891 11 46 28.56 +02 02 54.0 19.8 V G96 – Mt. Lemmon Survey MPS 323461
2010 04 17.27566 11 46 28.30 +02 02 54.8 20.0 V G96 – Mt. Lemmon Survey MPS 323461
2011 08 23.48653 23 56 42.143 -03 14 26.67 21.0 g F51 – Pan-STARRS 1, Haleakala MPS 389104
2011 08 23.49751 23 56 41.663 -03 14 29.04 20.9 g F51 – Pan-STARRS 1, Haleakala MPS 389104
2011 08 23.50973 23 56 41.142 -03 14 31.70 20.5 r F51 – Pan-STARRS 1, Haleakala MPS 389104
2011 08 23.52039 23 56 40.670 -03 14 33.99 20.6 r F51 – Pan-STARRS 1, Haleakala MPS 389104
